• In Hungary
  • List of Countries
  • For 7 days
  • Water Temperature
  • Satellite Maps
  • Weather Map
  • News
  • Weather Widgets
  • user-avatar
    Login

    Hourly Weather Antonin

    Today, 22 October, Monday

    Time Temperature Precipitation Wind Pressure Humidity
    00:00 +7°C° 0 mm 1 mps 758 mmHg 78%
    01:00 +7°C° 0 mm 1 mps 758 mmHg 79%
    02:00 +6°C° 0 mm 1 mps 757 mmHg 80%
    03:00 +6°C° 0 mm 1 mps 757 mmHg 81%
    04:00 +5°C° 0 mm 2 mps 757 mmHg 83%
    05:00 +5°C° 0 mm 2 mps 757 mmHg 83%
    06:00 +5°C° 0 mm 2 mps 757 mmHg 84%
    07:00 +5°C° 0 mm 2 mps 757 mmHg 81%
    08:00 +6°C° 0 mm 2 mps 756 mmHg 75%
    09:00 +8°C° 0 mm 2 mps 756 mmHg 69%
    10:00 +10°C° 0 mm 3 mps 756 mmHg 63%
    11:00 +11°C° 0 mm 3 mps 756 mmHg 59%
    12:00 +12°C° 0 mm 3 mps 755 mmHg 56%
    13:00 +12°C° 0 mm 4 mps 755 mmHg 53%
    14:00 +12°C° 0 mm 3 mps 755 mmHg 56%
    15:00 +12°C° 0 mm 3 mps 755 mmHg 59%
    16:00 +12°C° 0 mm 3 mps 755 mmHg 62%
    17:00 +11°C° 0 mm 4 mps 755 mmHg 67%
    18:00 +10°C° 0 mm 4 mps 755 mmHg 73%
    19:00 +9°C° 0 mm 5 mps 755 mmHg 79%
    20:00 +8°C° 0 mm 5 mps 756 mmHg 81%
    21:00 +7°C° 0 mm 4 mps 756 mmHg 83%
    22:00 +6°C° 0 mm 4 mps 756 mmHg 84%
    23:00 +6°C° 0 mm 4 mps 756 mmHg 85%

    Tomorrow, 23 October, Tuesday

    Time Temperature Precipitation Wind Pressure Humidity
    00:00 +5°C° 0 mm 4 mps 756 mmHg 85%
    01:00 +4°C° 0 mm 4 mps 756 mmHg 85%
    02:00 +4°C° 0 mm 4 mps 755 mmHg 85%
    03:00 +4°C° 0 mm 4 mps 755 mmHg 85%
    04:00 +4°C° 0 mm 4 mps 754 mmHg 85%
    05:00 +3°C° 0 mm 5 mps 753 mmHg 81%
    06:00 +5°C° 0 mm 5 mps 752 mmHg 78%
    07:00 +4°C° 0 mm 6 mps 752 mmHg 75%
    08:00 +5°C° 0.2 mm 7 mps 751 mmHg 72%
    09:00 +5°C° 0.2 mm 8 mps 750 mmHg 70%
    10:00 +6°C° 0.2 mm 9 mps 749 mmHg 67%
    11:00 +6°C° 1.1 mm 10 mps 747 mmHg 71%
    12:00 +6°C° 1.1 mm 10 mps 746 mmHg 74%
    13:00 +5°C° 1.1 mm 10 mps 745 mmHg 77%
    14:00 +6°C° 0.4 mm 11 mps 744 mmHg 78%
    15:00 +7°C° 0.4 mm 11 mps 744 mmHg 78%
    16:00 +7°C° 0.4 mm 11 mps 743 mmHg 79%
    17:00 +8°C° 0.8 mm 11 mps 742 mmHg 80%
    18:00 +8°C° 0.8 mm 11 mps 741 mmHg 81%
    19:00 +9°C° 0.8 mm 11 mps 741 mmHg 83%
    20:00 +9°C° 1.3 mm 11 mps 740 mmHg 83%
    21:00 +9°C° 1.3 mm 11 mps 739 mmHg 84%
    22:00 +9°C° 1.3 mm 11 mps 739 mmHg 84%
    23:00 +9°C° 1.4 mm 11 mps 738 mmHg 84%

    Day after tomorrow, 24 October, Wednesday

    Time Temperature Precipitation Wind Pressure Humidity
    00:00 +9°C° 1.4 mm 11 mps 737 mmHg 84%
    01:00 +9°C° 1.4 mm 11 mps 737 mmHg 84%
    02:00 +8°C° 1.2 mm 11 mps 737 mmHg 79%
    03:00 +7°C° 1.2 mm 11 mps 737 mmHg 74%
    04:00 +5°C° 1.2 mm 12 mps 737 mmHg 70%
    05:00 +6°C° 0.1 mm 11 mps 738 mmHg 68%
    06:00 +5°C° 0.1 mm 10 mps 739 mmHg 67%
    07:00 +3°C° 0.1 mm 9 mps 740 mmHg 65%
    08:00 +5°C° 0.1 mm 10 mps 740 mmHg 61%
    09:00 +5°C° 0.1 mm 10 mps 741 mmHg 58%
    10:00 +6°C° 0.1 mm 11 mps 742 mmHg 54%
    11:00 +6°C° 0.1 mm 11 mps 742 mmHg 50%
    12:00 +7°C° 0.1 mm 11 mps 743 mmHg 46%
    13:00 +7°C° 0.1 mm 11 mps 743 mmHg 42%
    14:00 +7°C° 0 mm 10 mps 744 mmHg 43%
    15:00 +6°C° 0 mm 9 mps 744 mmHg 44%
    16:00 +6°C° 0 mm 8 mps 745 mmHg 45%
    17:00 +5°C° 0 mm 8 mps 746 mmHg 48%
    18:00 +5°C° 0 mm 7 mps 746 mmHg 51%
    19:00 +4°C° 0 mm 7 mps 747 mmHg 54%
    20:00 +4°C° 0 mm 7 mps 747 mmHg 57%
    21:00 +4°C° 0 mm 7 mps 747 mmHg 59%
    22:00 +3°C° 0 mm 6 mps 748 mmHg 62%
    23:00 +3°C° 0 mm 6 mps 748 mmHg 63%

    25 October, Thursday

    Time Temperature Precipitation Wind Pressure Humidity
    00:00 +3°C° 0 mm 6 mps 748 mmHg 65%
    01:00 +2°C° 0 mm 6 mps 748 mmHg 66%
    02:00 +2°C° 0 mm 6 mps 747 mmHg 70%
    03:00 +3°C° 0 mm 6 mps 747 mmHg 74%
    04:00 +3°C° 0 mm 5 mps 746 mmHg 77%
    05:00 +3°C° 0.7 mm 6 mps 746 mmHg 81%
    06:00 +3°C° 0.7 mm 6 mps 745 mmHg 85%
    07:00 +4°C° 0.7 mm 6 mps 744 mmHg 88%
    08:00 +5°C° 0.5 mm 7 mps 743 mmHg 87%
    09:00 +7°C° 0.5 mm 8 mps 743 mmHg 86%
    10:00 +8°C° 0.5 mm 9 mps 742 mmHg 85%
    11:00 +8°C° 0.2 mm 9 mps 742 mmHg 83%
    12:00 +10°C° 0.2 mm 9 mps 742 mmHg 81%
    13:00 +9°C° 0.2 mm 10 mps 741 mmHg 78%
    14:00 +8°C° 0.2 mm 9 mps 742 mmHg 77%
    15:00 +8°C° 0.2 mm 9 mps 742 mmHg 76%
    16:00 +9°C° 0.2 mm 8 mps 742 mmHg 75%
    17:00 +7°C° 0 mm 8 mps 743 mmHg 76%
    18:00 +8°C° 0 mm 7 mps 743 mmHg 77%
    19:00 +7°C° 0 mm 6 mps 744 mmHg 77%
    20:00 +7°C° 0 mm 6 mps 744 mmHg 79%
    21:00 +6°C° 0 mm 5 mps 744 mmHg 80%
    22:00 +6°C° 0 mm 5 mps 745 mmHg 81%
    23:00 +6°C° 0 mm 5 mps 745 mmHg 83%

    26 October, Friday

    Time Temperature Precipitation Wind Pressure Humidity
    00:00 +5°C° 0 mm 5 mps 745 mmHg 84%
    01:00 +5°C° 0 mm 4 mps 745 mmHg 85%
    02:00 +5°C° 0 mm 4 mps 745 mmHg 86%
    03:00 +5°C° 0 mm 4 mps 745 mmHg 88%
    04:00 +4°C° 0 mm 4 mps 745 mmHg 89%
    05:00 +4°C° 0 mm 3 mps 745 mmHg 90%
    06:00 +4°C° 0 mm 3 mps 745 mmHg 91%
    07:00 +4°C° 0 mm 3 mps 745 mmHg 92%
    08:00 +5°C° 0 mm 3 mps 744 mmHg 88%
    09:00 +8°C° 0 mm 3 mps 744 mmHg 83%
    10:00 +8°C° 0 mm 4 mps 744 mmHg 79%
    11:00 +10°C° 0 mm 4 mps 744 mmHg 76%
    12:00 +11°C° 0 mm 4 mps 744 mmHg 73%
    13:00 +12°C° 0 mm 4 mps 743 mmHg 71%
    14:00 +12°C° 0 mm 3 mps 743 mmHg 72%
    15:00 +12°C° 0 mm 3 mps 742 mmHg 74%
    16:00 +11°C° 0 mm 3 mps 742 mmHg 76%
    17:00 +11°C° 0 mm 3 mps 741 mmHg 77%
    18:00 +11°C° 0 mm 4 mps 741 mmHg 78%
    19:00 +10°C° 0 mm 4 mps 741 mmHg 80%
    20:00 +10°C° 0 mm 4 mps 740 mmHg 80%
    21:00 +10°C° 0 mm 4 mps 740 mmHg 80%
    22:00 +10°C° 0 mm 4 mps 740 mmHg 81%
    23:00 +10°C° 0 mm 4 mps 739 mmHg 81%

    27 October, Saturday

    Time Temperature Precipitation Wind Pressure Humidity
    00:00 +10°C° 0 mm 4 mps 739 mmHg 81%
    01:00 +10°C° 0 mm 4 mps 739 mmHg 81%
    02:00 +10°C° 0 mm 4 mps 739 mmHg 83%
    03:00 +8°C° 0 mm 4 mps 738 mmHg 84%
    04:00 +9°C° 0 mm 3 mps 738 mmHg 86%
    05:00 +8°C° 0 mm 4 mps 738 mmHg 86%
    06:00 +7°C° 0 mm 4 mps 739 mmHg 86%
    07:00 +7°C° 0 mm 4 mps 739 mmHg 86%
    08:00 +7°C° 0.2 mm 4 mps 739 mmHg 80%
    09:00 +7°C° 0.2 mm 5 mps 739 mmHg 75%
    10:00 +8°C° 0.2 mm 5 mps 740 mmHg 69%
    11:00 +8°C° 0 mm 5 mps 740 mmHg 65%
    12:00 +8°C° 0 mm 5 mps 740 mmHg 61%
    13:00 +8°C° 0 mm 5 mps 740 mmHg 57%
    14:00 +8°C° 0 mm 4 mps 740 mmHg 58%
    15:00 +7°C° 0 mm 4 mps 740 mmHg 60%
    16:00 +8°C° 0 mm 3 mps 740 mmHg 61%
    17:00 +8°C° 0 mm 3 mps 740 mmHg 63%
    18:00 +7°C° 0 mm 3 mps 740 mmHg 64%
    19:00 +7°C° 0 mm 2 mps 740 mmHg 66%
    20:00 +7°C° 0 mm 2 mps 740 mmHg 68%
    21:00 +7°C° 0 mm 2 mps 740 mmHg 69%
    22:00 +6°C° 0 mm 2 mps 740 mmHg 70%
    23:00 +6°C° 0 mm 2 mps 740 mmHg 71%

    28 October, Sunday

    Time Temperature Precipitation Wind Pressure Humidity
    00:00 +6°C° 0 mm 2 mps 740 mmHg 72%
    01:00 +7°C° 0 mm 1 mps 739 mmHg 73%
    02:00 +7°C° 0.1 mm 1 mps 739 mmHg 74%
    03:00 +7°C° 0.1 mm 1 mps 739 mmHg 75%
    04:00 +6°C° 0.1 mm 1 mps 739 mmHg 75%
    05:00 +6°C° 0.1 mm 1 mps 739 mmHg 75%
    06:00 +6°C° 0.1 mm 1 mps 739 mmHg 75%
    07:00 +6°C° 0.1 mm 1 mps 739 mmHg 75%
    08:00 +5°C° 0.2 mm 2 mps 739 mmHg 74%
    09:00 +6°C° 0.2 mm 2 mps 740 mmHg 72%
    10:00 +5°C° 0.2 mm 3 mps 740 mmHg 70%
    11:00 +5°C° 0.1 mm 3 mps 740 mmHg 66%
    12:00 +6°C° 0.1 mm 4 mps 741 mmHg 63%
    13:00 +7°C° 0.1 mm 4 mps 741 mmHg 59%
    14:00 +6°C° 0 mm 4 mps 742 mmHg 60%
    15:00 +7°C° 0 mm 3 mps 742 mmHg 61%
    16:00 +7°C° 0 mm 3 mps 743 mmHg 61%
    17:00 +5°C° 0 mm 3 mps 743 mmHg 64%
    18:00 +4°C° 0 mm 3 mps 744 mmHg 67%
    19:00 +3°C° 0 mm 3 mps 744 mmHg 70%
    20:00 +3°C° 0 mm 3 mps 745 mmHg 72%
    21:00 +3°C° 0 mm 3 mps 745 mmHg 75%
    22:00 +2°C° 0 mm 3 mps 746 mmHg 77%
    23:00 +2°C° 0 mm 3 mps 746 mmHg 79%
    Show more